Satellite-Ground Cal/Val Site Overpasses Predictions

Prediction of Satellite NPP Overpassing Cal/Val Site: Antarctic Dome C

Ground Cal/Val Site Location: Latitude: -75.10, Longitude: 123.35; Satellite-Ground Site NADIR distance within 100 km.

Table of predicted overpasses for the next 14.0 days since TLE Epoch: 2/21/2016
Interval Starting Time Ending Time Minimum Distance Time Minimum Distance (km)
1 02/22/2016 15:08:53 02/22/2016 15:09:04 02/22/2016 15:08:58 92.74
2 02/23/2016 14:49:53 02/23/2016 14:50:22 02/23/2016 14:50:08 18.61
3 02/25/2016 07:32:40 02/25/2016 07:33:10 02/25/2016 07:32:55 0.06
4 02/28/2016 14:56:04 02/28/2016 14:56:32 02/28/2016 14:56:18 17.45
5 02/29/2016 14:37:21 02/29/2016 14:37:33 02/29/2016 14:37:27 89.46
6 03/01/2016 07:38:51 03/01/2016 07:39:19 03/01/2016 07:39:05 35.64
7 03/02/2016 07:20:04 03/02/2016 07:20:23 03/02/2016 07:20:14 74.65
8 03/04/2016 15:02:15 03/04/2016 15:02:39 03/04/2016 15:02:27 54.07
9 03/05/2016 14:43:25 03/05/2016 14:43:49 03/05/2016 14:43:37 55.03


NCC Satellite Cal/Val Overpasses Prediction Service
